DWGW3121 Weather Reports


time (UTC)temp
C
wind
direction
speed
KPH
gust
KPH
rain 1hr
cm
rain 24hr
cm
rain mn
cm
humidity
%
barometer
mb
20260510103603 11 212 1.6 4.8 0.00 0.79 0.00 92 1011.4
20260510103103 11 212 1.6 4.8 0.00 0.81 0.00 92 1011.3
20260510102603 11 213 0.0 1.6 0.00 0.81 0.00 92 1011.1
20260510102103 11 213 1.6 8.0 0.00 0.86 0.00 92 1011.1
20260510101103 11 213 1.6 4.8 0.00 0.91 0.00 92 1011.0
20260510100604 11 212 1.6 8.0 0.00 0.91 0.00 92 1010.8
20260510095603 11 192 1.6 4.8 0.00 0.94 0.00 92 1010.7
20260510095103 10 195 1.6 8.0 0.00 0.94 0.00 92 1010.7
20260510094603 10 205 3.2 8.0 0.00 0.97 0.00 92 1010.4
20260510094103 10 179 1.6 4.8 0.00 0.97 0.00 92 1010.5
20260510093603 10 195 1.6 4.8 0.00 0.97 0.00 92 1010.6
20260510091603 11 153 0.0 3.2 0.00 0.99 0.00 91 1010.4
20260510091103 11 153 0.0 3.2 0.00 1.02 0.00 91 1010.3
20260510090603 11 153 1.6 3.2 0.00 1.02 0.00 91 1010.2
20260510090103 11 195 1.6 3.2 0.00 1.02 0.00 91 1010.3
20260510085603 11 191 1.6 4.8 0.00 1.04 0.00 91 1010.2
20260510085103 11 191 0.0 3.2 0.00 1.04 0.00 91 1009.9
20260510084603 11 191 3.2 8.0 0.00 1.07 0.00 91 1010.0
20260510084103 11 178 1.6 3.2 0.00 1.07 0.00 91 1010.0
20260510083603 11 153 0.0 1.6 0.00 1.09 0.00 91 1010.0
20260510082603 11 153 1.6 4.8 0.00 1.14 0.00 91 1010.0
20260510082103 11 140 3.2 8.0 0.00 1.17 0.00 91 1010.0
20260510081603 11 167 1.6 8.0 0.00 1.17 0.00 91 1010.0
20260510081103 11 167 3.2 8.0 0.00 1.17 0.00 91 1010.0
20260510080604 11 197 1.6 4.8 0.00 1.17 0.00 91 1010.1
20260510075103 11 231 1.6 3.2 0.00 1.17 0.00 91 1010.6
20260510074604 11 237 1.6 8.0 0.00 1.17 0.00 91 1010.8
20260510074104 11 200 3.2 11.3 0.00 1.17 0.00 91 1010.8
20260510073103 11 217 1.6 8.0 0.00 1.17 0.00 91 1010.9
20260510072604 11 232 3.2 8.0 0.00 1.17 0.00 91 1011.1
20260510072104 11 237 3.2 8.0 0.00 1.17 0.00 91 1011.3
20260510071603 11 237 1.6 3.2 0.00 1.17 0.00 91 1011.2
20260510070104 11 248 1.6 8.0 0.00 1.17 0.00 91 1011.2
20260510065604 11 230 1.6 8.0 0.00 1.17 0.00 92 1011.1
20260510065103 11 231 1.6 4.8 0.00 1.17 0.00 91 1010.9
20260510064604 11 230 1.6 4.8 0.00 1.17 0.00 92 1011.0
20260510064104 11 230 1.6 4.8 0.00 1.17 0.00 92 1010.9
20260510063603 11 230 1.6 4.8 0.00 1.17 0.00 92 1010.8
20260510063103 11 231 3.2 8.0 0.00 1.17 0.00 92 1010.7
20260510062604 11 200 1.6 8.0 0.00 1.17 0.00 92 1010.7
20260510062103 10 140 1.6 8.0 0.00 1.17 0.00 92 1010.4
20260510061604 10 134 1.6 8.0 0.00 1.17 0.00 92 1010.4
20260510061103 10 248 3.2 8.0 0.00 1.17 0.00 92 1010.3
20260510060603 10 149 3.2 3.2 0.00 1.17 0.00 92 1010.2
20260510055603 10 192 1.6 3.2 0.00 1.17 0.00 91 1010.3
20260510055105 10 194 1.6 8.0 0.00 1.17 0.00 91 1010.4
20260510054603 10 193 0.0 1.6 0.00 1.17 0.00 91 1010.4
20260510054103 10 193 1.6 3.2 0.00 1.17 0.00 91 1010.5
20260510053603 10 195 0.0 3.2 0.00 1.17 0.00 91 1010.5
20260510052603 10 195 1.6 4.8 0.00 1.17 0.00 90 1010.6
20260510052103 11 198 1.6 3.2 0.00 1.17 0.00 90 1010.8
20260510051604 11 176 1.6 3.2 0.00 1.17 0.00 90 1010.7
20260510051104 11 202 0.0 3.2 0.00 1.17 0.00 89 1010.7
20260510050603 11 202 1.6 3.2 0.00 1.17 0.00 89 1010.6
20260510050103 11 197 1.6 4.8 0.00 1.17 0.00 89 1010.6
20260510045604 11 197 1.6 4.8 0.00 1.17 0.00 89 1010.5
20260510045104 11 200 1.6 4.8 0.00 1.17 0.00 89 1010.5
20260510044603 11 177 0.0 3.2 0.00 1.17 0.00 89 1010.5
20260510043605 11 184 1.6 3.2 0.00 1.17 0.00 88 1010.4
20260510043104 11 215 1.6 4.8 0.00 1.17 0.00 88 1010.4
20260510042603 11 167 0.0 4.8 0.00 1.17 0.00 88 1010.3
20260510042103 11 178 1.6 3.2 0.00 1.17 0.00 88 1010.3
20260510041603 11 218 3.2 8.0 0.00 1.17 0.00 88 1010.5
20260510041103 11 213 3.2 8.0 0.00 1.17 0.00 88 1010.5
20260510040604 11 160 3.2 9.7 0.00 1.17 0.00 88 1010.5
20260510040104 11 227 3.2 8.0 0.00 1.17 0.00 88 1010.5
20260510035603 11 197 4.8 9.7 0.00 1.17 1.17 88 1010.5
20260510034604 11 199 1.6 4.8 0.00 1.17 1.17 88 1010.5
20260510034105 11 180 3.2 8.0 0.00 1.17 1.17 88 1010.6
20260510033604 11 245 1.6 8.0 0.00 1.17 1.17 88 1010.6
20260510033103 11 202 3.2 4.8 0.00 1.17 1.17 88 1010.4
20260510032604 11 170 1.6 3.2 0.00 1.17 1.17 87 1010.4
20260510032104 11 169 1.6 3.2 0.00 1.17 1.17 87 1010.3
20260510031603 11 215 1.6 4.8 0.00 1.17 1.17 87 1010.3
20260510031103 12 182 1.6 3.2 0.00 1.17 1.17 87 1010.3
20260510030603 12 195 1.6 8.0 0.00 1.17 1.17 87 1010.3
20260510030103 12 207 3.2 8.0 0.00 1.17 1.17 87 1010.4
20260510025103 12 219 3.2 4.8 0.00 1.17 1.17 88 1010.6
20260510024605 12 242 1.6 4.8 0.00 1.17 1.17 88 1010.6
20260510024104 12 241 1.6 4.8 0.00 1.17 1.17 88 1010.4
20260510023604 12 205 3.2 9.7 0.00 1.17 1.17 88 1010.3
20260510023103 11 233 1.6 8.0 0.00 1.17 1.17 88 1010.3
20260510022605 11 152 3.2 8.0 0.00 1.17 1.17 88 1010.2
20260510022103 11 141 3.2 8.0 0.00 1.17 1.17 89 1010.4
20260510021603 11 216 1.6 8.0 0.00 1.17 1.17 89 1010.6
20260510020603 11 192 3.2 8.0 0.00 1.17 1.17 89 1010.6
20260510020103 11 202 3.2 8.0 0.00 1.17 1.17 90 1010.5
20260510015604 11 161 3.2 8.0 0.00 1.17 1.17 90 1010.5
20260510015103 11 208 1.6 8.0 0.00 1.17 1.17 89 1010.5
20260510014604 11 107 1.6 8.0 0.00 1.17 1.17 90 1010.5
20260510013104 11 193 1.6 4.8 0.00 1.17 1.17 89 1010.4
20260510011604 11 221 1.6 8.0 0.00 1.17 1.17 89 1010.3
20260510011103 11 141 1.6 4.8 0.00 1.17 1.17 90 1010.3
20260510010604 11 225 3.2 8.0 0.00 1.17 1.17 90 1010.2
20260510010104 11 166 3.2 8.0 0.00 1.17 1.17 90 1010.5
20260510005603 11 155 3.2 8.0 0.00 1.17 1.17 90 1010.5
20260510005104 11 221 1.6 4.8 0.00 1.17 1.17 90 1010.6
20260510004604 11 220 1.6 8.0 0.00 1.17 1.17 89 1010.3
20260510004103 11 214 1.6 4.8 0.00 1.17 1.17 89 1010.2
20260510003605 11 219 1.6 3.2 0.00 1.17 1.17 89 1010.0
20260510002603 11 219 0.0 3.2 0.00 1.17 1.17 88 1009.9
20260510002104 11 219 1.6 8.0 0.00 1.17 1.17 88 1009.8
20260510001603 11 180 3.2 8.0 0.00 1.17 1.17 87 1009.7
20260510001104 11 161 1.6 3.2 0.00 1.17 1.17 87 1009.7
20260510000605 12 89 0.0 3.2 0.00 1.17 1.17 87 1009.7
20260509235604 12 82 1.6 8.0 0.00 1.17 1.17 87 1009.5
20260509235104 12 228 1.6 8.0 0.00 1.17 1.17 87 1009.4
20260509234604 12 219 1.6 4.8 0.00 1.17 1.17 87 1009.3
20260509234104 12 143 1.6 3.2 0.00 1.17 1.17 87 1009.3
20260509233604 12 152 1.6 8.0 0.00 1.17 1.17 87 1009.2
20260509233103 12 160 1.6 4.8 0.00 1.17 1.17 88 1009.0
20260509232603 12 203 3.2 8.0 0.00 1.17 1.17 88 1009.0
20260509232106 12 194 1.6 8.0 0.00 1.17 1.17 88 1009.0
20260509231603 12 173 3.2 9.7 0.00 1.17 1.17 88 1009.0
20260509231104 12 220 3.2 11.3 0.00 1.17 1.17 88 1009.1
20260509230604 12 215 3.2 8.0 0.00 1.17 1.17 89 1009.1
20260509230105 12 157 3.2 11.3 0.00 1.17 1.17 89 1009.1
20260509225604 12 175 3.2 4.8 0.00 1.17 1.17 89 1009.2
20260509225103 12 156 1.6 8.0 0.00 1.17 1.17 89 1009.2
20260509224106 12 225 3.2 8.0 0.00 1.17 1.17 89 1009.3
20260509223604 12 226 1.6 4.8 0.00 1.17 1.17 89 1009.4
20260509223103 12 225 4.8 8.0 0.00 1.17 1.17 89 1009.4
20260509222604 12 245 3.2 8.0 0.00 1.17 1.17 89 1009.6
20260509222104 12 233 3.2 9.7 0.00 1.17 1.17 90 1009.6
20260509221604 12 262 1.6 8.0 0.00 1.17 1.17 90 1009.5
20260509221104 12 213 4.8 8.0 0.00 1.17 1.17 90 1009.5
20260509220103 12 266 1.6 4.8 0.00 1.17 1.17 91 1009.3
20260509215605 12 189 1.6 8.0 0.00 1.17 1.17 91 1009.5
20260509215105 12 172 1.6 4.8 0.00 1.17 1.17 91 1009.5
20260509214104 12 213 3.2 8.0 0.00 1.17 1.17 91 1009.5
20260509212104 12 90 3.2 9.7 0.00 1.17 1.17 91 1009.7
20260509211603 12 196 4.8 12.9 0.00 1.17 1.17 92 1009.7
20260509210604 11 257 4.8 9.7 0.03 1.17 1.17 92 1009.8
20260509210103 11 203 3.2 9.7 0.03 1.17 1.17 92 1009.8
20260509205604 11 171 3.2 9.7 0.03 1.17 1.17 92 1009.9
20260509205104 11 226 3.2 8.0 0.03 1.17 1.17 92 1010.0
20260509204604 11 236 1.6 11.3 0.03 1.17 1.17 92 1010.1
20260509204105 11 266 1.6 4.8 0.03 1.17 1.17 93 1010.0
20260509203604 11 205 4.8 12.9 0.03 1.17 1.17 93 1010.1
20260509203105 11 212 4.8 11.3 0.03 1.17 1.17 93 1010.2
20260509202604 11 254 3.2 8.0 0.05 1.17 1.17 93 1010.4
20260509202105 11 212 3.2 8.0 0.08 1.17 1.17 93 1010.3
20260509201104 11 242 4.8 12.9 0.13 1.17 1.17 93 1010.4
20260509200603 11 220 3.2 8.0 0.13 1.14 1.14 93 1010.5
20260509195604 11 217 4.8 8.0 0.18 1.14 1.14 93 1010.6
20260509195104 11 232 3.2 8.0 0.18 1.14 1.14 93 1010.7
20260509194604 11 243 4.8 11.3 0.20 1.14 1.14 93 1010.7
20260509193105 11 211 1.6 8.0 0.25 1.14 1.14 93 1010.8
20260509192104 11 241 3.2 4.8 0.25 1.09 1.09 93 1010.9
20260509191604 11 244 1.6 8.0 0.23 1.07 1.07 93 1010.9
20260509191105 11 205 1.6 4.8 0.20 1.04 1.04 93 1011.0
20260509190604 11 166 1.6 1.6 0.20 1.02 1.02 93 1010.9
20260509190104 11 166 1.6 8.0 0.20 1.02 1.02 93 1011.0
20260509185605 11 131 1.6 4.8 0.15 0.97 0.97 93 1010.9
20260509185104 11 146 1.6 3.2 0.15 0.97 0.97 93 1011.0
20260509184104 11 128 1.6 3.2 0.13 0.91 0.91 93 1011.1
20260509183604 11 125 0.0 1.6 0.13 0.89 0.89 93 1011.1
20260509183103 11 125 1.6 3.2 0.13 0.89 0.89 93 1011.0
20260509182104 11 234 1.6 4.8 0.10 0.84 0.84 93 1010.9
20260509181106 10 91 1.6 4.8 0.10 0.84 0.84 93 1010.9
20260509180604 10 80 1.6 4.8 0.10 0.81 0.81 93 1010.9
20260509175604 10 25 1.6 4.8 0.13 0.81 0.81 93 1010.9
20260509174605 10 165 1.6 8.0 0.10 0.79 0.79 93 1011.1
20260509174104 10 169 1.6 8.0 0.10 0.79 0.79 93 1011.1
20260509173604 10 227 1.6 4.8 0.08 0.76 0.76 93 1011.2
20260509173104 10 230 1.6 4.8 0.10 0.76 0.76 93 1011.3
20260509172604 10 98 1.6 3.2 0.10 0.76 0.76 93 1011.3
20260509172104 10 86 1.6 8.0 0.08 0.74 0.74 92 1011.4
20260509171604 10 152 1.6 4.8 0.08 0.74 0.74 92 1011.5
20260509171104 10 208 1.6 4.8 0.08 0.74 0.74 93 1011.6
20260509170604 10 86 1.6 8.0 0.05 0.71 0.71 93 1011.7
20260509170104 10 171 0.0 3.2 0.05 0.71 0.71 93 1011.7
20260509165605 10 151 1.6 8.0 0.03 0.69 0.69 93 1011.7
20260509165105 10 199 0.0 3.2 0.03 0.69 0.69 93 1011.7
20260509164605 10 175 0.0 3.2 0.05 0.69 0.69 93 1011.9
20260509164105 10 177 1.6 4.8 0.05 0.69 0.69 93 1011.9
20260509163604 10 180 0.0 1.6 0.05 0.69 0.69 93 1011.9
20260509163104 10 180 0.0 3.2 0.03 0.66 0.66 93 1012.0
20260509162604 10 181 1.6 3.2 0.03 0.66 0.66 93 1012.1
20260509162104 10 181 0.0 1.6 0.03 0.66 0.66 93 1012.0
20260509161605 9 180 0.0 1.6 0.05 0.66 0.66 93 1012.1
20260509160604 9 191 1.6 3.2 0.05 0.66 0.66 93 1012.3
20260509160104 9 191 1.6 3.2 0.05 0.66 0.66 93 1012.3
20260509155604 9 191 0.0 1.6 0.05 0.66 0.66 93 1012.4
20260509155104 9 191 1.6 3.2 0.08 0.66 0.66 93 1012.4
20260509154604 9 176 0.0 1.6 0.05 0.64 0.64 93 1012.3
20260509154104 8 176 0.0 1.6 0.08 0.64 0.64 93 1012.4
20260509153604 8 176 0.0 3.2 0.08 0.64 0.64 93 1012.5
20260509153104 8 200 0.0 3.2 0.08 0.64 0.64 93 1012.5
20260509152604 8 200 0.0 1.6 0.08 0.64 0.64 93 1012.6
20260509152103 8 200 1.6 3.2 0.10 0.64 0.64 93 1012.8
20260509151604 8 181 1.6 8.0 0.08 0.61 0.61 93 1012.9
20260509151104 8 164 0.0 1.6 0.08 0.61 0.61 93 1012.9
20260509150604 8 163 0.0 3.2 0.10 0.61 0.61 93 1013.0
20260509150104 8 163 0.0 1.6 0.10 0.61 0.61 93 1012.9
20260509145605 8 163 0.0 1.6 0.10 0.61 0.61 93 1012.9
20260509145104 8 163 1.6 3.2 0.10 0.58 0.58 92 1013.0
20260509144604 8 164 1.6 1.6 0.10 0.58 0.58 92 1013.0
20260509144105 8 163 1.6 3.2 0.08 0.56 0.56 92 1013.0
20260509143605 8 164 1.6 3.2 0.08 0.56 0.56 92 1013.2
20260509143104 8 166 3.2 4.8 0.08 0.56 0.56 92 1013.0
20260509142605 7 230 1.6 3.2 0.08 0.56 0.56 92 1013.2
20260509142104 7 229 1.6 1.6 0.05 0.53 0.53 92 1013.0
20260509141604 7 229 0.0 3.2 0.05 0.53 0.53 92 1012.8
20260509141104 7 229 0.0 4.8 0.05 0.53 0.53 92 1012.8
20260509140605 7 230 1.6 3.2 0.03 0.51 0.51 92 1012.8
20260509135605 7 234 1.6 8.0 0.03 0.51 0.51 92 1012.6
20260509135105 7 236 1.6 3.2 0.00 0.48 0.48 92 1012.6
20260509134605 7 83 1.6 4.8 0.00 0.48 0.48 92 1012.6
20260509134104 7 88 0.0 1.6 0.00 0.48 0.48 92 1012.5
20260509133605 7 89 1.6 4.8 0.00 0.48 0.48 92 1012.5
20260509133105 7 200 1.6 3.2 0.00 0.48 0.48 92 1012.6
20260509132605 7 219 1.6 8.0 0.00 0.48 0.48 92 1012.7
20260509132104 7 221 0.0 1.6 0.00 0.48 0.48 92 1012.7
20260509131104 7 222 0.0 3.2 0.00 0.48 0.48 92 1012.8
20260509130604 7 222 1.6 4.8 0.00 0.48 0.48 92 1012.8
20260509130105 7 220 1.6 8.0 0.00 0.48 0.48 92 1012.8
20260509125605 7 223 0.0 4.8 0.00 0.48 0.48 92 1012.9
20260509125104 7 222 0.0 1.6 0.00 0.48 0.48 92 1012.9
20260509124605 7 222 1.6 3.2 0.03 0.48 0.48 92 1012.9
20260509124104 7 225 1.6 1.6 0.03 0.48 0.48 92 1012.8
20260509123604 7 225 0.0 1.6 0.03 0.48 0.48 92 1012.8
20260509123105 7 225 1.6 3.2 0.03 0.48 0.48 92 1012.8
20260509122605 7 226 1.6 3.2 0.03 0.48 0.48 92 1012.9
20260509122104 7 226 0.0 3.2 0.03 0.48 0.48 92 1012.9
20260509121605 7 219 1.6 8.0 0.03 0.48 0.48 92 1012.9
20260509121113 7 175 1.6 8.0 0.05 0.48 0.48 92 1012.9
20260509120603 7 175 1.6 8.0 0.05 0.48 0.48 92 1012.9
20260509120104 7 251 3.2 9.7 0.05 0.48 0.48 92 1012.9
20260509115604 7 209 3.2 8.0 0.05 0.48 0.48 92 1013.0
20260509115103 7 238 3.2 8.0 0.08 0.48 0.48 92 1013.0
20260509114603 6 202 1.6 3.2 0.08 0.48 0.48 92 1013.0
20260509114104 6 202 1.6 8.0 0.05 0.46 0.46 92 1012.9
20260509113604 6 223 3.2 4.8 0.05 0.46 0.46 92 1013.0
20260509113103 6 269 1.6 4.8 0.08 0.46 0.46 92 1013.0
20260509112604 6 311 1.6 4.8 0.08 0.46 0.46 92 1013.0
20260509111605 6 60 3.2 8.0 0.13 0.46 0.46 92 1013.0
20260509111104 6 71 4.8 8.0 0.18 0.46 0.46 92 1012.9
20260509110604 6 86 4.8 9.7 0.18 0.43 0.43 92 1013.1
20260509110104 6 74 4.8 8.0 0.18 0.43 0.43 92 1012.9
20260509105605 6 87 6.4 11.3 0.18 0.43 0.43 92 1012.9
20260509105105 6 83 4.8 9.7 0.18 0.41 0.41 92 1013.0
20260509104603 6 79 4.8 11.3 0.18 0.41 0.41 92 1013.0